Bristol Airport, United Kingdom

6:43 AM BST on June 20, 2018 (GMT +0100)
Bristol

Weather History for EGGD - June, 2018

Change the Weather History Date:

Thursday, June 14, 2018

  Actual Average Record
Temperature  
Mean Temperature 58 °F -  
Max Temperature 64 °F 63 °F 73 °F (2003)
Min Temperature 51 °F 50 °F 44 °F (2012)
Degree Days  
Heating Degree Days 6    
Growing Degree Days 8 (Base 50)    
Moisture  
Dew Point 54 °F    
Average Humidity 86    
Maximum Humidity 100    
Minimum Humidity 68    
Precipitation  
Precipitation 0.00 in - - ()
Sea Level Pressure  
Sea Level Pressure 29.90 in    
Wind  
Wind Speed 14 mph ()    
Max Wind Speed 23 mph    
Max Gust Speed 36 mph    
Visibility 6.0 miles    
Events Rain    
Averages and records for this station are not official NWS values.
T = Trace of Precipitation, MM = Missing Value Source: Averaged Metar Reports

Daily Weather History Graph

Daily Weather History Graph

Search for Another Location

Airport or City:

Astronomy

Jun. 14, 2018 Rise Set
Actual Time 4:53 AM BST 9:28 PM BST
Civil Twilight 4:06 AM BST 10:15 PM BST
Nautical Twilight 2:54 AM BST 11:28 PM BST
Astronomical Twilight 1:43 AM BST 12:38 AM BST
Moon 5:45 AM BST (6/14) 10:06 PM BST (6/14)
Length of Visible Light 18h 09m
Length of Day
16h 34m
New Moon, 1% of the Moon is Illuminated
Jun 14
New Moon
Jun 20
First Quarter
Jun 28
Full
Jul 6
Last Quarter
Jul 13
New

Hourly Weather History & Observations

Time (BST) Temp. Dew Point Humidity Pressure Visibility Wind Dir Wind Speed Gust Speed Precip Events Conditions
12:20 AM 57.2 °F 57.2 °F 100% 29.92 in 6.2 mi South 11.5 mph - N/A Rain Light Rain
12:50 AM 57.2 °F 55.4 °F 94% 29.89 in 6.2 mi South 12.7 mph - N/A Rain Light Rain
1:20 AM 55.4 °F 55.4 °F 100% 29.89 in 6.2 mi SSW 11.5 mph - N/A   Mostly Cloudy
1:50 AM 57.2 °F 55.4 °F 94% 29.89 in 6.2 mi SSW 12.7 mph - N/A   Overcast
2:20 AM 55.4 °F 55.4 °F 100% 29.86 in 6.2 mi SSW 12.7 mph - N/A   Overcast
3:20 AM 57.2 °F 55.4 °F 94% 29.83 in 6.2 mi SSW 13.8 mph - N/A   Overcast
3:50 AM 57.2 °F 55.4 °F 94% 29.83 in 6.2 mi SSW 17.3 mph - N/A   Overcast
4:20 AM 57.2 °F 55.4 °F 94% 29.83 in 6.2 mi SSW 15.0 mph - N/A   Overcast
4:50 AM 57.2 °F 55.4 °F 94% 29.80 in 6.2 mi SSW 13.8 mph - N/A   Mostly Cloudy
5:20 AM 57.2 °F 55.4 °F 94% 29.80 in 6.2 mi SSW 13.8 mph - N/A   Overcast
5:50 AM 57.2 °F 57.2 °F 100% 29.77 in 6.2 mi SSW 15.0 mph - N/A Rain Light Rain
6:20 AM 57.2 °F 57.2 °F 100% 29.77 in 6.2 mi South 15.0 mph - N/A   Overcast
6:50 AM 57.2 °F 57.2 °F 100% 29.77 in 6.2 mi SSW 13.8 mph - N/A Rain Light Rain
7:20 AM 57.2 °F 57.2 °F 100% 29.77 in 6.2 mi SSW 12.7 mph - N/A   Overcast
7:50 AM 59.0 °F 59.0 °F 100% 29.77 in 6.2 mi SSW 11.5 mph - N/A   Overcast
8:20 AM 59.0 °F 59.0 °F 100% 29.80 in 1.9 mi SW 15.0 mph - N/A Rain Rain
8:50 AM 59.0 °F 57.2 °F 94% 29.80 in 6.2 mi WSW 23.0 mph 34.5 mph N/A   Mostly Cloudy
9:20 AM 59.0 °F 57.2 °F 94% 29.80 in 6.2 mi WSW 20.7 mph - N/A   Overcast
9:50 AM 59.0 °F 57.2 °F 94% 29.83 in 6.2 mi West 20.7 mph 35.7 mph N/A   Overcast
10:20 AM 59.0 °F 55.4 °F 88% 29.83 in 6.2 mi WSW 21.9 mph - N/A   Overcast
10:50 AM 60.8 °F 57.2 °F 88% 29.83 in 6.2 mi West 23.0 mph - N/A   Mostly Cloudy
11:20 AM 60.8 °F 55.4 °F 82% 29.83 in 6.2 mi West 23.0 mph - N/A   Overcast
11:50 AM 60.8 °F 55.4 °F 82% 29.86 in 6.2 mi West 21.9 mph 33.4 mph N/A   Mostly Cloudy
12:20 PM 62.6 °F 53.6 °F 72% 29.86 in 6.2 mi West 23.0 mph - N/A   Overcast
12:50 PM 62.6 °F 53.6 °F 72% 29.89 in 6.2 mi West 19.6 mph - N/A   Overcast
1:20 PM 62.6 °F 53.6 °F 72% 29.89 in 6.2 mi West 19.6 mph - N/A   Overcast
1:50 PM 64.4 °F 53.6 °F 68% 29.89 in 6.2 mi West 20.7 mph - N/A   Mostly Cloudy
2:20 PM 62.6 °F 53.6 °F 72% 29.92 in 6.2 mi West 21.9 mph - N/A   Mostly Cloudy
2:50 PM 62.6 °F 53.6 °F 72% 29.92 in 6.2 mi West 19.6 mph - N/A   Mostly Cloudy
3:20 PM 64.4 °F 53.6 °F 68% 29.92 in 6.2 mi WSW 19.6 mph - N/A   Scattered Clouds
3:50 PM 62.6 °F 53.6 °F 72% 29.95 in 6.2 mi West 21.9 mph - N/A   Unknown
4:20 PM 62.6 °F 51.8 °F 68% 29.95 in 6.2 mi West 21.9 mph - N/A   Unknown
4:50 PM 62.6 °F 51.8 °F 68% 29.95 in 6.2 mi West 20.7 mph - N/A   Unknown
5:20 PM 62.6 °F 51.8 °F 68% 29.95 in 6.2 mi WSW 17.3 mph - N/A   Unknown
5:50 PM 62.6 °F 51.8 °F 68% 29.95 in 6.2 mi WSW 17.3 mph - N/A   Unknown
6:20 PM 60.8 °F 51.8 °F 72% 29.98 in 6.2 mi West 17.3 mph - N/A   Unknown
6:50 PM 60.8 °F 51.8 °F 72% 29.98 in 6.2 mi West 17.3 mph - N/A   Unknown
7:20 PM 60.8 °F 51.8 °F 72% 29.98 in 6.2 mi West 15.0 mph - N/A   Unknown
7:50 PM 59.0 °F 51.8 °F 77% 29.98 in 6.2 mi West 15.0 mph - N/A   Unknown
8:20 PM 57.2 °F 51.8 °F 82% 29.98 in 3.7 mi WSW 12.7 mph - N/A   Unknown
8:50 PM 57.2 °F 53.6 °F 88% 30.01 in 3.7 mi WSW 11.5 mph - N/A   Unknown
9:20 PM 55.4 °F 53.6 °F 94% 30.01 in 6.2 mi WSW 12.7 mph - N/A   Unknown
9:50 PM 55.4 °F 51.8 °F 88% 30.01 in 6.2 mi WSW 10.4 mph - N/A   Unknown
10:20 PM 53.6 °F 51.8 °F 94% 30.04 in 6.2 mi WSW 10.4 mph - N/A   Unknown
10:50 PM 53.6 °F 51.8 °F 94% 30.04 in 6.2 mi West 10.4 mph - N/A   Unknown
11:20 PM 53.6 °F 51.8 °F 94% 30.04 in 6.2 mi West 8.1 mph - N/A   Unknown
11:50 PM 51.8 °F 51.8 °F 100% 30.04 in 6.2 mi West 9.2 mph - N/A   Unknown